Location: Andrest
(43.3200°N, 0.0641°E)
Time: 14:24:36
(UTC+00:00)

SMAP - Pass Details

Date: 01 December 2020
Orbit: 681 x 683 km, 98.1° (Epoch: 24 January)

Event Time Altitude Azimuth Distance (km) Brightness Sun altitude
Rises 16:56:43 0° 152° (SSE) 3,034 6.4 -5.9°
Reaches altitude 10° 16:58:59 10° 147° (SSE) 2,123 5.5 -6.3°
Maximum altitude 17:03:29 51° 72° (ENE) 859 3.2 -7.1°
Drops below altitude 10° 17:08:00 10° 357° (N) 2,139 5.4 -7.8°
Sets 17:10:18 0° 352° (N) 3,059 6.3 -8.2°
